Sedalia, MO

7:45 PM CST on February 20, 2018 (GMT -0600)
Sedalia Memorial

Weather History for KDMO - September, 2013

Change the Weather History Date:

Saturday, September 28, 2013

  Actual Average Record
Temperature  
Mean Temperature 64 °F 64 °F  
Max Temperature 74 °F 74 °F 101 °F (1953)
Min Temperature 54 °F 54 °F 30 °F (1942)
Degree Days  
Heating Degree Days 1 4  
Month to date heating degree days 13 34  
Since 1 July heating degree days 13 35  
Cooling Degree Days 0 3  
Month to date cooling degree days 222 159  
Year to date cooling degree days 1437 1444  
Growing Degree Days 14 (Base 50)    
Moisture  
Dew Point 63 °F    
Average Humidity 85    
Maximum Humidity 97    
Minimum Humidity 73    
Precipitation  
Precipitation 0.77 in 0.13 in 1.74 in (1937)
Month to date precipitation 3.56 3.87  
Year to date precipitation 33.47 31.81  
Sea Level Pressure  
Sea Level Pressure 29.97 in    
Wind  
Wind Speed 9 mph (SSW)    
Max Wind Speed 20 mph    
Max Gust Speed 26 mph    
Visibility 6 miles    
Events Rain , Thunderstorm    
T = Trace of Precipitation, MM = Missing Value Source: NWS Daily Summary

Daily Weather History Graph

Daily Weather History Graph

Search for Another Location

Airport or City:

Trip Planner

Search our weather history database for the weather conditions in past years. The results will help you decide how hot, cold, wet, or windy it might be!

Date:

Astronomy

Sep. 28, 2013 Rise Set
Actual Time 7:06 AM CDT 6:59 PM CDT
Civil Twilight 6:39 AM CDT 7:26 PM CDT
Nautical Twilight 6:08 AM CDT 7:57 PM CDT
Astronomical Twilight 5:37 AM CDT 8:28 PM CDT
Moon 12:57 AM CDT (9/28) 3:16 PM CDT (9/28)
Length of Visible Light 12h 46m
Length of Day
11h 53m
Waning Crescent, 36% of the Moon is Illuminated
Sep 28
Waning Crescent
Oct 4
New
Oct 11
First Quarter
Oct 18
Full
Oct 26
Last Quarter

Hourly Weather History & Observations

Time (CDT) Temp. Dew Point Humidity Pressure Visibility Wind Dir Wind Speed Gust Speed Precip Events Conditions
12:53 AM 70.0 °F 63.0 °F 78% 29.92 in 10.0 mi SSE 11.5 mph - N/A   Clear
1:53 AM 71.1 °F 62.1 °F 73% 29.91 in 10.0 mi South 15.0 mph - N/A   Clear
2:53 AM 71.1 °F 62.1 °F 73% 29.91 in 10.0 mi SSE 11.5 mph - N/A   Clear
3:53 AM 69.1 °F 62.1 °F 78% 29.90 in 10.0 mi SSE 9.2 mph - N/A   Clear
4:53 AM 68.0 °F 62.1 °F 81% 29.91 in 10.0 mi SSE 9.2 mph - N/A   Mostly Cloudy
5:53 AM 66.9 °F 62.1 °F 84% 29.91 in 10.0 mi SSE 8.1 mph - N/A   Mostly Cloudy
6:53 AM 68.0 °F 62.1 °F 81% 29.91 in 10.0 mi SSE 12.7 mph - N/A   Mostly Cloudy
7:53 AM 70.0 °F 62.1 °F 76% 29.90 in 10.0 mi SSE 13.8 mph - N/A   Partly Cloudy
8:53 AM 72.0 °F 63.0 °F 73% 29.89 in 10.0 mi SSE 15.0 mph - N/A   Overcast
9:31 AM 73.4 °F 62.6 °F 69% 29.92 in 10.0 mi South 17.3 mph 23.0 mph N/A Thunderstorm Overcast
9:46 AM 71.6 °F 64.4 °F 78% 29.93 in 2.5 mi South 19.6 mph 25.3 mph 0.06 in Rain , Thunderstorm Rain
9:53 AM 70.0 °F 64.9 °F 84% 29.91 in 2.5 mi South 15.0 mph 25.3 mph 0.07 in Rain , Thunderstorm Light Rain
10:04 AM 69.8 °F 66.2 °F 88% 29.94 in 1.8 mi South 17.3 mph 26.5 mph 0.10 in Rain , Thunderstorm Light Rain
10:07 AM 69.8 °F 66.2 °F 88% 29.95 in 3.0 mi SSW 13.8 mph 26.5 mph 0.10 in Rain , Thunderstorm Light Thunderstorms and Rain
10:15 AM 69.8 °F 66.2 °F 88% 29.97 in 1.5 mi SSW 17.3 mph 23.0 mph 0.23 in Rain , Thunderstorm Heavy Thunderstorms and Rain
10:17 AM 69.8 °F 66.2 °F 88% 29.97 in 1.0 mi SSW 18.4 mph 23.0 mph 0.29 in Rain , Thunderstorm Heavy Thunderstorms and Rain
10:24 AM 69.8 °F 66.2 °F 88% 29.96 in 0.8 mi SW 13.8 mph 23.0 mph 0.41 in Rain , Thunderstorm Heavy Rain
10:29 AM 69.8 °F 66.2 °F 88% 29.97 in 1.5 mi SSW 13.8 mph 20.7 mph 0.41 in Rain , Thunderstorm Light Rain
10:34 AM 69.8 °F 66.2 °F 88% 29.97 in 2.5 mi SSW 15.0 mph - 0.46 in Rain Heavy Rain
10:39 AM 69.8 °F 66.2 °F 88% 29.96 in 1.8 mi SSW 15.0 mph - 0.48 in Rain , Thunderstorm Rain
10:41 AM 69.8 °F 66.2 °F 88% 29.96 in 2.0 mi SSW 15.0 mph - 0.48 in Rain , Thunderstorm Rain
10:51 AM 69.8 °F 66.2 °F 88% 29.97 in 5.0 mi SSW 11.5 mph - 0.49 in Rain , Thunderstorm Light Rain
10:53 AM 69.1 °F 66.9 °F 93% 29.96 in 4.0 mi SSW 13.8 mph - 0.50 in Rain , Thunderstorm Light Rain
10:57 AM 69.8 °F 66.2 °F 88% 29.97 in 2.5 mi SSW 12.7 mph - 0.02 in Rain Heavy Rain
11:10 AM 69.8 °F 66.2 °F 88% 29.97 in 4.0 mi South 12.7 mph 19.6 mph 0.04 in Rain Light Rain
11:24 AM 69.8 °F 66.2 °F 88% 29.97 in 2.5 mi SSW 10.4 mph - 0.09 in Rain Light Rain
11:33 AM 69.8 °F 66.2 °F 88% 29.97 in 5.0 mi SSW 11.5 mph - 0.10 in Rain Light Rain
11:53 AM 70.0 °F 68.0 °F 93% 29.95 in 3.0 mi South 11.5 mph - 0.12 in Rain Rain
12:53 PM 72.0 °F 69.1 °F 91% 29.91 in 9.0 mi South 13.8 mph - 0.01 in Rain Light Rain
1:53 PM 73.0 °F 69.1 °F 87% 29.93 in 10.0 mi SW 12.7 mph 17.3 mph 0.00 in   Mostly Cloudy
2:11 PM 73.4 °F 68.0 °F 83% 29.94 in 10.0 mi SW 9.2 mph - 0.00 in Rain Light Rain
2:53 PM 73.0 °F 69.1 °F 87% 29.93 in 7.0 mi SW 8.1 mph - 0.00 in Rain Light Rain
3:41 PM 64.4 °F 62.6 °F 94% 29.97 in 5.0 mi NW 16.1 mph 24.2 mph 0.04 in Rain Light Rain
3:53 PM 63.0 °F 61.0 °F 93% 29.96 in 10.0 mi NW 11.5 mph 23.0 mph 0.04 in Rain Light Rain
4:53 PM 63.0 °F 61.0 °F 93% 29.98 in 10.0 mi NW 8.1 mph - 0.02 in   Overcast
5:12 PM 62.6 °F 60.8 °F 94% 29.99 in 7.0 mi NW 10.4 mph - 0.00 in Rain Light Rain
5:34 PM 62.6 °F 60.8 °F 94% 30.00 in 5.0 mi NW 10.4 mph - 0.01 in Rain Light Rain
5:53 PM 62.1 °F 60.1 °F 93% 29.99 in 7.0 mi NW 9.2 mph - 0.01 in   Overcast
6:53 PM 61.0 °F 59.0 °F 93% 30.00 in 10.0 mi NNW 12.7 mph - 0.00 in   Overcast
7:53 PM 61.0 °F 59.0 °F 93% 30.02 in 10.0 mi NNW 6.9 mph - N/A   Overcast
8:53 PM 60.1 °F 57.9 °F 93% 30.04 in 10.0 mi NW 3.5 mph - N/A   Mostly Cloudy
9:53 PM 57.9 °F 55.9 °F 93% 30.06 in 10.0 mi Calm Calm - N/A   Clear
10:53 PM 57.0 °F 55.0 °F 93% 30.07 in 10.0 mi Calm Calm - N/A   Clear
11:29 PM 55.4 °F 53.6 °F 94% 30.09 in 1.8 mi Calm Calm - N/A   Clear
11:38 PM 55.4 °F 53.6 °F 94% 30.09 in 1.2 mi Calm Calm - N/A   Clear
11:48 PM 55.4 °F 53.6 °F 94% 30.09 in 1.0 mi WNW 3.5 mph - N/A   Clear
11:53 PM 55.0 °F 54.0 °F 96% 30.08 in 0.8 mi Calm Calm - N/A   Clear